AL7BX-WX Weather Reports


time (UTC)temp
F
wind
direction
speed
knots
gust
knots
rain 1hr
in
rain 24hr
in
rain mn
in
humidity
%
barometer
mb
20260506230903 63 353 9.6 15.6 0.00 0.00 0.00 26
20260506230003 64 336 11.3 16.5 0.00 0.00 0.00 28
20260506225403 64 338 10.4 18.2 0.00 0.00 0.00 29
20260506224503 63 355 10.4 18.2 0.00 0.00 0.00 30
20260506223603 64 358 9.6 16.5 0.00 0.00 0.00 29
20260506222703 64 345 10.4 18.2 0.00 0.00 0.00 28
20260506221803 64 343 9.6 18.2 0.00 0.00 0.00 31
20260506220903 64 351 10.4 18.2 0.00 0.00 0.00 30
20260506220003 64 332 12.2 19.1 0.00 0.00 0.00 30
20260506215403 64 340 10.4 19.1 0.00 0.00 0.00 33
20260506214503 63 10 8.7 20.9 0.00 0.00 0.00 31
20260506213814 64 355 8.7 16.5 0.00 0.00 0.00 32
20260506212703 63 342 9.6 17.4 0.00 0.00 0.00 37
20260506212013 63 352 8.7 19.1 0.00 0.00 0.00 35
20260506211114 63 343 9.6 18.2 0.00 0.00 0.00 34
20260506210213 62 3 9.6 18.2 0.00 0.00 0.00 34
20260506205613 62 357 10.4 19.1 0.00 0.00 0.00 33
20260506204503 63 341 10.4 18.2 0.00 0.00 0.00 37
20260506203603 62 353 10.4 21.7 0.00 0.00 0.00 35
20260506202703 62 338 12.2 20.0 0.00 0.00 0.00 36
20260506201803 62 335 11.3 20.0 0.00 0.00 0.00 40
20260506200903 62 340 11.3 20.0 0.00 0.00 0.00 40
20260506200004 61 345 10.4 19.1 0.00 0.00 0.00 39
20260506195404 61 338 11.3 19.1 0.00 0.00 0.00 38
20260506194503 61 331 12.2 22.6 0.00 0.00 0.00 40
20260506193603 61 347 10.4 18.2 0.00 0.00 0.00 41
20260506192912 61 346 10.4 19.1 0.00 0.00 0.00 45
20260506191803 61 341 11.3 18.2 0.00 0.00 0.00 43
20260506190903 60 349 10.4 18.2 0.00 0.00 0.00 44
20260506190004 61 345 8.7 18.2 0.00 0.00 0.00 45
20260506185403 61 340 7.8 16.5 0.00 0.00 0.00 43
20260506184503 61 18 7.0 15.6 0.00 0.00 0.00 46
20260506183603 60 343 10.4 16.5 0.00 0.00 0.00 46
20260506182704 60 343 7.8 16.5 0.00 0.00 0.00 47
20260506181803 60 353 8.7 17.4 0.00 0.00 0.00 48
20260506181113 60 359 7.0 14.8 0.00 0.00 0.00 48
20260506180214 60 357 7.8 15.6 0.00 0.00 0.00 49
20260506175403 59 353 9.6 17.4 0.00 0.00 0.00 50
20260506174503 59 2 7.8 16.5 0.00 0.00 0.00 49
20260506173603 59 360 7.8 14.8 0.00 0.00 0.00 47
20260506172703 59 345 5.2 12.2 0.00 0.00 0.00 47
20260506171803 59 333 7.0 13.0 0.00 0.00 0.00 52
20260506170903 58 348 7.0 11.3 0.00 0.00 0.00 50
20260506170214 58 348 6.1 11.3 0.00 0.00 0.00 50
20260506165403 58 354 7.0 14.8 0.00 0.00 0.00 48
20260506164503 58 12 6.1 12.2 0.00 0.00 0.00 47
20260506163603 58 356 6.1 15.6 0.00 0.00 0.00 48
20260506162913 58 349 4.3 10.4 0.00 0.00 0.00 47
20260506162013 57 15 3.5 7.8 0.00 0.00 0.00 48
20260506160903 57 327 2.6 6.1 0.00 0.00 0.00 48
20260506160003 56 319 0.9 4.3 0.00 0.00 0.00 47
20260506155403 55 320 0.9 2.6 0.00 0.00 0.00 48
20260506154503 54 319 0.9 2.6 0.00 0.00 0.00 49
20260506153603 53 319 1.7 3.5 0.00 0.00 0.00 48
20260506152703 53 345 1.7 4.3 0.00 0.00 0.00 48
20260506151803 53 356 1.7 3.5 0.00 0.00 0.00 49
20260506150903 52 355 1.7 4.3 0.00 0.00 0.00 51
20260506150003 52 315 2.6 4.3 0.00 0.00 0.00 52
20260506145403 52 312 2.6 4.3 0.00 0.00 0.00 51
20260506144503 50 312 1.7 3.5 0.00 0.00 0.00 58
20260506143813 49 311 1.7 3.5 0.00 0.00 0.00 58
20260506142703 48 311 1.7 3.5 0.00 0.00 0.00 57
20260506141803 49 311 2.6 3.5 0.00 0.00 0.00 57
20260506140903 49 274 1.7 5.2 0.00 0.00 0.00 58
20260506140213 48 242 0.0 1.7 0.00 0.00 0.00 58
20260506135403 46 0 0.0 0.0 0.00 0.00 0.00 58
20260506134503 46 241 0.0 0.9 0.00 0.00 0.00 57
20260506133603 46 0 0.0 0.0 0.00 0.00 0.00 57
20260506132703 46 239 0.9 3.5 0.00 0.00 0.00 57
20260506132014 46 178 0.0 0.9 0.00 0.00 0.00 54
20260506130903 46 178 0.0 0.9 0.00 0.00 0.00 54
20260506130214 46 0 0.0 0.0 0.00 0.00 0.00 53
20260506125403 46 178 0.0 0.9 0.00 0.00 0.00 52
20260506124503 46 178 0.0 1.7 0.00 0.00 0.00 51
20260506123603 46 178 0.0 1.7 0.00 0.00 0.00 51
20260506122703 47 178 1.7 2.6 0.00 0.00 0.00 50
20260506122013 47 184 1.7 3.5 0.00 0.00 0.00 50
20260506120903 47 235 1.7 3.5 0.00 0.00 0.00 50
20260506120003 47 298 0.0 2.6 0.00 0.00 0.00 51
20260506115614 47 299 0.0 0.9 0.00 0.00 0.00 52
20260506114503 48 0 0.0 0.0 0.00 0.00 0.00 51
20260506113603 48 299 0.9 3.5 0.00 0.00 0.00 52
20260506112703 49 246 0.9 4.3 0.00 0.00 0.00 52
20260506112013 48 169 0.9 2.6 0.00 0.00 0.00 47
20260506110903 48 169 0.0 2.6 0.00 0.00 0.00 49
20260506110003 48 169 0.9 1.7 0.00 0.00 0.00 49
20260506105403 48 169 0.9 1.7 0.00 0.00 0.00 49
20260506104503 48 169 0.9 2.6 0.00 0.00 0.00 48
20260506103603 48 141 1.7 5.2 0.00 0.00 0.00 48
20260506102703 47 137 1.7 5.2 0.00 0.00 0.00 48
20260506101803 46 145 1.7 3.5 0.00 0.00 0.00 49
20260506100903 46 138 1.7 3.5 0.00 0.00 0.00 48
20260506100004 46 167 1.7 4.3 0.00 0.00 0.00 48
20260506095403 45 218 0.9 3.5 0.00 0.00 0.00 49
20260506094714 45 219 0.9 2.6 0.00 0.00 0.00 49
20260506093603 46 219 0.9 3.5 0.00 0.00 0.00 48
20260506092703 47 218 0.0 1.7 0.00 0.00 0.00 46
20260506091803 48 218 0.9 2.6 0.00 0.00 0.00 45
20260506090903 48 208 0.9 4.3 0.00 0.00 0.00 45
20260506090003 49 156 1.7 5.2 0.00 0.00 0.00 44
20260506085612 48 207 0.9 3.5 0.00 0.00 0.00 45
20260506084714 49 209 0.0 0.9 0.00 0.00 0.00 44
20260506083603 50 0 0.0 0.0 0.00 0.00 0.00 43
20260506082912 50 209 0.0 1.7 0.00 0.00 0.00 44
20260506081803 51 209 0.9 3.5 0.00 0.00 0.00 41
20260506081113 52 210 0.9 3.5 0.00 0.00 0.00 41
20260506080213 52 207 1.7 3.5 0.00 0.00 0.00 41
20260506072703 52 205 3.5 10.4 0.00 0.00 0.00 39
20260506071803 52 188 2.6 6.1 0.00 0.00 0.00 40
20260506070904 52 191 2.6 4.3 0.00 0.00 0.00 40
20260506061803 54 205 1.7 4.3 0.00 0.00 0.00 41
20260506060903 54 208 0.0 2.6 0.00 0.00 0.00 42
20260506050903 54 208 0.9 2.6 0.00 0.00 0.00 41
20260506044503 54 234 0.9 2.6 0.00 0.00 0.00 43
20260506043603 54 252 0.9 2.6 0.00 0.00 0.00 43
20260506042703 55 252 0.0 1.7 0.00 0.00 0.00 42
20260506041803 55 246 2.6 5.2 0.00 0.00 0.00 42
20260506040903 55 251 4.3 7.8 0.00 0.00 0.00 42
20260506040004 55 249 3.5 7.8 0.00 0.00 0.00 41
20260506035403 55 251 4.3 7.8 0.00 0.00 0.00 41
20260506034503 55 259 5.2 9.6 0.00 0.00 0.00 40
20260506033813 55 255 2.6 7.8 0.00 0.00 0.00 41
20260506032703 55 245 2.6 6.1 0.00 0.00 0.00 40
20260506032014 55 244 2.6 6.1 0.00 0.00 0.00 40
20260506030903 56 263 3.5 6.1 0.00 0.00 0.00 39
20260506030003 56 268 5.2 9.6 0.00 0.00 0.00 39
20260506025614 56 274 6.1 9.6 0.00 0.00 0.00 39
20260506024503 57 278 7.8 13.9 0.00 0.00 0.00 38
20260506023813 57 276 7.0 10.4 0.00 0.00 0.00 38
20260506022703 57 279 8.7 12.2 0.00 0.00 0.00 37
20260506022014 57 285 8.7 12.2 0.00 0.00 0.00 38
20260506020903 58 284 11.3 16.5 0.00 0.00 0.00 37
20260506020004 59 276 7.8 13.9 0.00 0.00 0.00 35
20260506015614 59 267 7.8 12.2 0.00 0.00 0.00 35
20260506014713 60 270 8.7 13.9 0.00 0.00 0.00 35
20260506013603 61 255 4.3 11.3 0.00 0.00 0.00 34
20260506012914 61 264 6.1 11.3 0.00 0.00 0.00 34
20260506011803 61 220 4.3 8.7 0.00 0.00 0.00 33
20260506010903 61 201 5.2 11.3 0.00 0.00 0.00 32
20260506010003 61 203 6.1 12.2 0.00 0.00 0.00 33
20260506005403 62 196 6.1 12.2 0.00 0.00 0.00 32
20260506004503 61 198 5.2 9.6 0.00 0.00 0.00 33
20260506003814 60 194 5.2 9.6 0.00 0.00 0.00 33
20260506002703 60 202 5.2 10.4 0.00 0.00 0.00 33
20260506001803 61 203 5.2 10.4 0.00 0.00 0.00 32
20260506000903 62 217 3.5 6.1 0.00 0.00 0.00 31
20260506000214 63 208 4.3 8.7 0.00 0.00 0.00 28
20260505235403 62 203 5.2 10.4 0.00 0.00 0.00 31
20260505234503 62 195 5.2 9.6 0.00 0.00 0.00 31
20260505233603 63 201 5.2 11.3 0.00 0.00 0.00 30
20260505232703 63 209 5.2 11.3 0.00 0.00 0.00 30
20260505232012 63 206 5.2 11.3 0.00 0.00 0.00 29